#timestamp,LO_Frequency,Hit,StdDev 
1635364815.7,286047003.1,N
1635364835.5,286047003.2,N
1635364855.4,286047004.4,N
1635364875.2,286047002.2,N
1635364895.1,286047002.7,N
1635364896.0,286047002.7,N
1635364915.8,286047004.0,N
1635364935.6,286047001.7,N
1635364955.5,286047002.0,N
1635364975.3,286047004.4,N
1635364995.2,286047001.8,N
1635365015.9,286047003.2,N
1635365035.7,286047005.6,N
1635365055.6,286047006.0,N
1635365075.4,286047005.5,N
1635365095.2,286047003.4,N
1635365115.1,286047005.8,Y
1635365116.0,286047005.8,P
1635365135.8,286047002.4,N
1635365155.7,286047001.4,N
1635365175.5,286046999.9,N
1635365195.3,286047002.3,N
1635365215.2,286047002.2,N
1635365235.0,286047003.8,N
1635365235.9,286047003.8,N
1635365255.8,286047001.6,N
1635365275.6,286047001.6,N
1635365295.4,286047004.4,N
1635365315.3,286047004.1,N
1635365335.1,286047002.3,N
1635365355.8,286047003.9,N
1635365375.7,286047003.7,N
1635365395.5,286047004.4,Y
1635365415.4,286046999.9,P
1635365435.2,286047001.1,N
1635365455.0,286046996.6,N
1635365455.9,286046996.6,N
1635365475.8,286046998.8,N
1635365495.6,286046998.3,N
1635365515.4,286046998.4,N
1635365535.3,286046999.0,N
1635365555.1,286047000.7,N
1635365575.9,286047002.5,N
1635365595.7,286047002.6,N
1635365615.5,286046999.9,N
1635365635.4,286047001.2,N
1635365655.2,286047000.0,N
1635365675.0,286046999.7,N
1635365676.0,286046999.7,N
1635365695.8,286047002.3,N
1635365715.6,286047001.4,N
1635365735.5,286047004.4,N
1635365755.3,286047003.7,N
1635365775.1,286047004.2,N
1635365795.9,286047003.4,N
1635365815.7,286047002.9,N
1635365835.6,286047004.1,N
1635365855.4,286047003.5,N
1635365875.2,286047004.4,N
1635365895.1,286047004.1,N
1635365896.0,286047004.1,N
1635365915.8,286047005.6,N
1635365935.6,286047005.1,N
1635365955.5,286047007.5,N
1635365975.3,286047005.5,N
1635365995.2,286047002.5,N
1635366015.9,286047002.8,N
1635366035.7,286047002.6,N
1635366055.6,286047001.8,N
1635366075.4,286047004.1,N
1635366095.2,286047003.5,N
1635366115.1,286047005.7,Y
1635366116.0,286047005.7,P
1635366135.8,286047002.6,N
1635366155.7,286047004.3,P
1635366175.5,286047005.9,Y
1635366195.3,286047000.9,P
1635366215.2,286047000.2,N
1635366235.0,286046999.8,N
1635366235.9,286046999.8,N
1635366255.8,286047002.3,N
1635366275.6,286046999.8,N
1635366295.4,286047001.6,N
1635366315.3,286047001.8,N
1635366335.1,286047001.6,N
1635366355.8,286047003.8,N
1635366375.7,286047002.3,N
1635366395.5,286047002.7,N
1635366415.4,286047000.6,N
1635366435.2,286047000.3,N
1635366455.0,286047000.7,N
1635366455.9,286047000.7,N
1635366475.8,286046999.8,N
1635366495.6,286047000.7,N
1635366515.4,286047001.0,N
1635366535.3,286047004.2,Y
1635366555.1,286046999.8,P
1635366575.9,286047000.8,N
1635366595.7,286046998.5,N
1635366615.5,286047002.4,N
1635366635.4,286047001.8,N
1635366655.2,286047002.0,N
1635366675.1,286047000.1,N
1635366676.0,286047000.1,N
1635366695.8,286047001.7,N
1635366715.6,286047001.3,N
1635366735.5,286047002.9,N
1635366755.3,286047005.2,Y
1635366775.1,286047003.8,P
1635366795.9,286047004.0,N
1635366815.7,286047002.2,N
1635366835.6,286047001.9,N
1635366855.4,286047000.7,N
1635366875.2,286047001.5,N
1635366895.1,286047001.0,N
1635366896.0,286047001.0,N
1635366915.8,286046998.6,N
1635366935.6,286047000.6,N
1635366955.5,286047000.6,N
1635366975.3,286047001.0,N
1635366995.2,286047000.1,N
1635367015.9,286047000.0,N
1635367035.7,286046999.8,N
1635367055.6,286047001.8,N
1635367075.4,286047003.1,N
1635367095.3,286047003.8,N
1635367115.1,286047003.5,N
1635367116.0,286047003.5,N
1635367135.8,286047006.8,Y
1635367155.7,286047005.2,P
1635367175.5,286047003.6,N
1635367195.3,286047003.1,N
1635367215.2,286047005.7,Y
1635367235.0,286047000.6,P
1635367235.9,286047000.6,N
1635367255.8,286047002.7,N
1635367275.6,286046998.2,N
1635367295.4,286047001.1,N
1635367315.3,286046998.4,N
1635367335.1,286047001.0,N
1635367355.9,286046999.9,N
1635367375.7,286047002.2,N
1635367395.5,286047002.8,N
1635367415.4,286047002.5,N
1635367435.2,286047002.1,N
1635367455.0,286047001.5,N
1635367455.9,286047001.5,N
1635367475.8,286047005.6,Y
1635367495.6,286047003.7,P
1635367515.5,286047001.6,N
1635367535.3,286047003.7,P
1635367555.1,286047004.4,Y
1635367575.9,286047000.0,P
1635367595.7,286047001.1,N
1635367615.6,286046998.8,N
1635367635.4,286046996.5,N
1635367655.2,286047001.1,N
1635367675.1,286047000.8,N
1635367676.0,286047000.8,N
1635367695.8,286046999.7,N
1635367715.7,286047002.2,N
1635367735.5,286047002.1,N
1635367755.3,286047002.0,N
1635367775.2,286047000.2,N
1635367795.9,286046998.7,N
1635367815.7,286046996.6,N
1635367835.6,286046999.4,N
1635367855.4,286046996.8,N
1635367875.3,286046996.7,N
1635367895.1,286046997.6,N
1635367896.0,286046997.6,N
1635367915.8,286046997.6,N
1635367935.7,286046998.6,N
1635367955.5,286046998.4,N
1635367975.4,286046999.9,N
1635367995.2,286047002.0,N
1635368015.0,286047001.8,N
1635368015.9,286047001.8,N
1635368035.8,286047002.7,N
1635368055.6,286047002.5,N
1635368075.4,286047001.5,N
1635368095.3,286047001.3,N
1635368115.1,286047003.1,N
1635368135.9,286047001.7,N
1635368155.7,286047003.9,N
1635368175.5,286047003.5,N
1635368195.4,286047004.7,N
1635368215.2,286047004.7,N
1635368235.0,286047004.5,N
1635368235.9,286047004.5,N
1635368255.8,286047006.8,N
1635368275.6,286047006.0,N
1635368295.5,286047004.6,N
1635368315.3,286047007.5,N
1635368335.1,286047006.5,N
1635368355.9,286047004.6,N
1635368375.7,286047006.8,N
1635368395.5,286047006.3,N
